Retour au catalogue

FENGYUN 1C DEB

LostPO
NORAD 32338·DEBRIS·🇨🇳 China

Lancé May 10, 1999 depuis Taiyuan Satellite Launch Center

Loading…

Prochains Passages (prochaines 24 heures)

TLE

PériméSource: Space-Track

Époque: Nov 6, 2024, 08:49 UTC

1 32338U 99025CYF 24311.36798734  .00018733  00000-0  52573-2 0  9998
2 32338  98.9062 173.9743 0060698  68.9070 291.8595 14.44919898593258

Suivez FENGYUN 1C DEB en temps réel avec AllMySat

Download on the App Store